sat.trackr.live / text

‹ back to catalog

STARLINK-11292 [DTC]

NORAD 61203 · 2024-171D

PAYLOAD ACTIVE UNKNOWN

§ Identity

Operator
Country
US
Launch date
2024-09-20
Launch site
AFWTR
Launch vehicle
Mass (kg)
RCS (m²)

Purposes: comms

External: N2YO · Heavens-Above · Gunter

§ Orbital elements

Epoch: 2026-05-25T01:29:35.369088Z

Period
91.74 min
Inclination
53.1583°
Eccentricity
0.0000700
Mean motion
15.69710525 rev/d
Perigee alt
359.3 km
Apogee alt
360.2 km
Semi-major
6,737.9 km
B*
2.2750e-5
RAAN
159.7870°
Arg perigee
73.9937°
Mean anomaly
286.1158°
Rev number
9,639

§ Raw data

STARLINK-11292 [DTC]1 61203U 24171D   26145.06221492  .00002169  00000+0  22750-4 0  99982 61203  53.1583 159.7870 0000700  73.9937 286.1158 15.69710525 96390

JSON: /api/v1/satellites/61203 · /tle

For live sub-satellite position, see the globe view (requires WebGL).

§ Visibility from observer

Set your observer location to see the next 7 days of passes ≥ 10°. The values pass through the URL so the page stays shareable.

No JS? Fill the form by hand. The geolocation button needs JavaScript.